COSMOS 2458 (734)

Last updated on Sun Mar 03 2019 03:10:51 GMT+0000 (Coordinated Universal Time)

1 36113U 09070C 19061.48049084 -.00000040 00000-0 10000-3 0 9993 2 36113 64.1827 162.1919 0002537 40.6396 243.1729 2.13091333 71706
UTC large
Height (km)
Speed (km/s)
/
Latitude / Longitude
Inclination (degrees)
Orbital Period (minutes)
Azimuth
Elevation
Range (km)
Doppler Factor

Next 0 passes for location: London (51.5072 / 0.1276)

Sorry there are no passes over London.